Location: Gull Harbor
(47.1000°N, 122.9000°W)
Time: 19:04:19
(UTC-08:00)

Envisat - Visible Passes

Search period start: 15 November 2018 00:00
Search period end: 25 November 2018 00:00
Orbit: 764 x 766 km, 98.2° (Epoch: 15 November)

Date Brightness Start Highest point End Pass type
(mag) Time Alt. Az. Time Alt. Az. Time Alt. Az.
15 Nov 4.3 17:36:07 10° ESE 17:39:38 19° ENE 17:43:11 10° NNE visible
15 Nov 3.2 19:14:17 17° S 19:18:09 68° WSW 19:23:15 10° NNW visible
16 Nov 2.9 18:37:20 15° SSE 18:41:27 59° ENE 18:46:28 10° N visible
16 Nov 5.3 20:17:33 11° SW 20:20:51 20° W 20:24:32 10° NW visible
17 Nov 3.7 18:00:33 10° SE 18:04:56 30° ENE 18:09:19 10° N visible
17 Nov 4.2 19:40:34 19° SSW 19:43:49 40° W 19:48:36 10° NNW visible
18 Nov 4.5 17:25:35 10° E 17:28:36 16° ENE 17:31:37 10° NNE visible
18 Nov 2.9 19:03:34 22° SSE 19:06:57 84° WSW 19:12:05 10° NNW visible
18 Nov 5.9 20:45:08 10° WSW 20:46:46 11° W 20:48:24 10° WNW visible
19 Nov 3.1 18:26:34 17° SE 18:30:18 48° ENE 18:35:11 10° N visible
19 Nov 5.0 20:06:47 16° SW 20:09:34 24° W 20:13:41 10° NW visible
20 Nov 6.1 06:32:58 10° ENE 06:35:17 13° E 06:37:35 10° ESE visible
20 Nov 4.0 17:49:46 10° ESE 17:53:50 25° ENE 17:57:55 10° N visible
20 Nov 3.8 19:29:46 24° SSW 19:32:34 50° W 19:37:31 10° NNW visible
21 Nov 4.6 17:15:14 10° E 17:17:34 13° NE 17:19:54 10° NNE visible
21 Nov 2.8 18:52:44 25° SSE 18:55:46 80° ENE 19:00:53 10° NNW visible
21 Nov 5.7 20:32:57 11° WSW 20:35:25 15° W 20:38:11 10° NW visible
22 Nov 3.4 18:15:41 17° SE 18:19:10 39° ENE 18:23:53 10° N visible
22 Nov 4.7 19:55:53 21° SW 19:58:17 30° W 20:02:44 10° NNW visible
23 Nov 6.5 06:23:34 10° E 06:23:55 10° E 06:24:17 10° E visible
23 Nov 4.2 17:39:04 10° ESE 17:42:46 21° ENE 17:46:28 10° NNE visible
23 Nov 3.4 19:18:50 29° S 19:21:20 62° WSW 19:26:24 10° NNW visible
24 Nov 4.8 17:05:19 10° ENE 17:06:33 11° NE 17:07:47 10° NE visible
24 Nov 2.9 18:41:45 26° SSE 18:44:36 65° ENE 18:49:39 10° N visible
24 Nov 5.4 20:21:57 14° WSW 20:24:05 18° W 20:27:32 10° NW visible
